Terminal Aerodrome Forecast
Issued by NWS Charleston, WV

Current Version | Previous Version | Graphics & Text | Print | Product List | Glossary On
Versions: 1 2 3 4 5 6 7 8 9 10 11 12 13 14 15 16 17 18 19 20 21 22 23 24
000
FTUS41 KRLX 241139
TAFBKW
TAF
KBKW 241139Z 2412/2512 27005KT P6SM BKN006 OVC015
     FM241500 27006KT P6SM BKN035
     FM241600 28010KT P6SM BKN250
     FM242000 27011G17KT P6SM SCT070
     FM242300 29008KT P6SM SCT060=

USA.gov is the U.S. government's official web portal to all federal, state and local government web resources and services.